Weather in Laborovaya

Russia / Yamalo-Nenets Autonomous Okrug     67°38′36″N   67°32′57″E
temp.,
°C
wind,
m/s
gust,
m/s
humid.,
%
clouds,
%
prec.,
mm/h
press.,
hPa
HPBL,
m
9 december, thu
thu923:00−8w111767100 0.0 1014449
02:00−8w9166759 0.0 1015314
05:00−11w6117212 0.0 1016123
08:00−16w44833 0.0 101726
11:00−17w338436 0.0 101924
14:00−18w3387100 0.0 102020
17:00−17wnw118784 0.0 102212
20:00−18wsw1190100 0.0 10249
10 december, fri
fri1023:00−19wsw119193 0.0 10249
02:00−22ssw1196100 0.0 10249
05:00−17s1298100 0.1 102341
08:00−16sse2397100 0.1 1021107
11:00−15se2392100 0.1 1019137
14:00−15se1296100 1.2 1017112
17:00−14n2296100 3.1 101698
20:00−14n3696100 1.6 1015251
11 december, sat
sat1123:00−14n4895100 2.8 1015389
02:00−15n51095100 0.9 1017471
05:00−15n61195100 1.6 1019510
08:00−15n61093100 0.3 1021367
11:00−15n4791100 0.4 1022220
14:00−17n229399 0.0 102425
17:00−19nnw119791 0.1 10259
20:00−20wsw119797 0.1 10269
12 december, sun
sun1223:00−23sw119692 0.1 10269
02:00−20s1194100 0.0 102522
05:00−18s1290100 0.0 102439
08:00−15sse1195100 0.3 102252
11:00−15se1197100 0.6 102329
14:00−16ssw119882 0.3 10249
17:00−21w1110073 0.3 10259
20:00−23w1110062 0.0 10279
13 december, mon
mon1323:00−24wsw119962 0.0 10279
02:00−25sw119938 0.0 10289
05:00−26ssw119943 0.0 10289
08:00−27ssw1110056 0.0 10289
11:00−28s1110074 0.0 10289
14:00−28ssw11100100 0.0 10279
17:00−21s2299100 0.0 102443
20:00−17sse2397100 0.0 1020108